Location: Unspecified
(0.0000°N, 0.0000°E)
Time: 17:51:33
(UTC+00:00)

TIGRISAT - Pass Details

Date: 11 December 2019
Orbit: 604 x 690 km, 97.7° (Epoch: 17 January)

Event Time Altitude Azimuth Distance (km) Brightness Sun altitude
Exits shadow 20:28:38 12° 193° (SSW) 1,888 ? -35.2°
Drops below altitude 10° 20:28:52 10° 193° (SSW) 1,986 ? -35.3°
Sets 20:31:02 0° 192° (SSW) 2,883 ? -35.8°
